Regional Weather Roundup
Issued by NWS

Home | Current Version | Previous Version | Text Only | Print | Product List | Glossary On
Versions: 1 2 3 4 5 6 7 8 9 10 11 12 13 14 15 16 17 18 19 20 21 22 23 24 25 26 27 28 29 30 31 32 33 34 35 36 37 38 39 40 41 42 43 44 45 46 47 48 49 50
000
ASUS44 KEWX 042103
RWRTX
SOUTH TEXAS REGIONAL WEATHER ROUNDUP
NATIONAL WEATHER SERVICE AUSTIN/SAN ANTONIO TX
300 PM CST SUN DEC 04 2016

NOTE: "FAIR" INDICATED FEW OR NO CLOUDS BELOW 12,000 FEET WITH NO
SIGNIFICANT WEATHER AND/OR OBSTRUCTIONS TO VISIBILITY.

* - THESE STATIONS ARE NOT NWS OR FAA STATIONS...AND ARE NOT SUBJECT
    TO NWS AND FAA QUALITY CONTROL.

TXZ171-172-183>190-042200-
TEXAS HILL COUNTRY AND EDWARDS PLATEAU

CITY           SKY/WX    TMP DP  RH WIND       PRES   REMARKS
JUNCTION       CLOUDY    48  44  86 N12       30.00S WCI  43
*LLANO         CLOUDY    52  52 100 N10       30.03S FOG
BURNET         CLOUDY    50  44  80 N8G18     30.01R WCI  47
*HORSESHOE BAY CLOUDY    50  47  88 N7        30.00R WCI  47
*KERRVILLE     LGT RAIN  49  47  93 N12       29.96F WCI  44
*FREDERICKSBRG CLOUDY    48  45  90 N10       29.99R WCI  43
*ROCKSPRINGS   CLOUDY    46  45  93 N9G17     30.01R WCI  42
*BOERNE STAGE  CLOUDY    46  46 100 N12G18    29.95F WCI  41
*CASTROVILLE   LGT RAIN  53  50  91 NE8G18    29.94S
HONDO          CLOUDY    54  52  93 N9        29.93R
*UVALDE        DRIZZLE   52  50  94 CALM      29.96R
DEL RIO        CLOUDY    52  49  89 N14       29.96F
LAUGHLIN AFB   PTSUNNY   52  46  82 N18       29.95F
CARRIZO SPRGS  RAIN      52  52 100 N7        29.94F
*EAGLE PASS    PTCLDY    54  50  87 MISG      29.95F
$$

TXZ173-191>194-202-209-217>225-228-042200-
CENTRAL AND SOUTH CENTRAL TEXAS

CITY           SKY/WX    TMP DP  RH WIND       PRES   REMARKS
GEORGETOWN     PTSUNNY   52  45  76 NE13G18   29.95F
AUSTIN/BERGSTM CLOUDY    53  48  83 N17       29.96S
AUSTIN/MABRY   CLOUDY    52  47  83 VRB5      29.96F
*AUSTIN/EXEC   CLOUDY    50  48  93 N17       29.94F WCI  44
*LAGO VISTA    CLOUDY    50  48  93 N8        29.97S WCI  47
SAN MARCOS     CLOUDY    52  48  87 N17       29.96F
NEW BRAUNFELS  LGT RAIN  52  49  89 N15       29.95R
RANDOLPH AFB   LGT RAIN  51  51 100 N16       29.93F
PT SAN ANTONIO LGT RAIN  53  50  89 NE17      29.89F
SAN ANTONIO    LGT RAIN  52  48  86 N15       29.92F
STINSON FIELD  LGT RAIN  54  49  83 NE17      29.91F
*PLEASANTON    LGT RAIN  53  51  92 N8        29.92F
*LA GRANGE     CLOUDY    53  51  93 N10G18    29.92F
*GIDDINGS      CLOUDY    50  48  92 NE9G16    29.98F WCI  47
*GONZALES      CLOUDY    53  52  95 N12G20    29.93R
$$

TXZ163>164-176>182-195>201-210>213-226-227-235-042200-
SOUTHEAST TEXAS

CITY           SKY/WX    TMP DP  RH WIND       PRES   REMARKS
COLLEGE STN    CLOUDY    52  49  89 N14       29.97R
*BRYAN         CLOUDY    51  49  92 N10G16    30.00R
*CALDWELL      NOT AVBL
*CROCKETT      CLOUDY    50  46  87 NE10      29.97F WCI  46
*BRENHAM       LGT RAIN  53  52  96 N10       29.94F
HUNTSVILLE     LGT RAIN  51  49  92 E5        29.94R
CONROE         LGT RAIN  51  49  92 VRB7      29.95R
HOUSTON BUSH   LGT RAIN  53  50  89 N8        29.95R
HOUSTON HOBBY  CLOUDY    53  51  93 N14       29.93R
*HOUSTON SW AP CLOUDY    53  51  94 N12       29.94R
PEARLAND       LGT RAIN  56  51  84 N9        29.93F
HOUSTON HOOKS  LGT RAIN  52  50  93 VRB3      29.96R
ELLINGTON FLD  NOT AVBL
SUGAR LAND     NOT AVBL
*HOUSTON EXEC  LGT RAIN  52  50  93 N14       29.93F
*CLEVELAND MUN LGT RAIN  51  49  93 N3        29.95S
*WHARTON       LGT RAIN  52  51  95 N13       29.91F
*COLUMBUS      LGT RAIN  52  50  93 N9        29.94R
*EAGLE LAKE    LGT RAIN  55  53  95 N13G18    29.92F
$$

TXZ214>216-236>238-042200-
THE UPPER TEXAS COAST

CITY           SKY/WX    TMP DP  RH WIND       PRES   REMARKS
*ORANGE        CLOUDY   N/A N/A N/A NE8       29.92S
PORT ARTHUR    LGT RAIN  54  51  90 N7        29.92R
GALVESTON      LGT RAIN  56  54  93 N17       29.90F
ANGLETON       CLOUDY    56  53  90 N13G23    29.91R
*BAY CITY      CLOUDY    55  54  95 N9        29.91F
PALACIOS       CLOUDY    55  52  89 N17G24    29.90F
$$

TXZ229>234-239>247-042200-
TEXAS COASTAL BEND AND RIO GRANDE PLAINS

CITY           SKY/WX    TMP DP  RH WIND       PRES   REMARKS
VICTORIA       CLOUDY    52  51  97 N13       29.92F
*BEEVILLE      CLOUDY    54  54 100 N13G22    29.89F
ROCKPORT         N/A    N/A N/A N/A MISG      29.89R
*PORT ARANSAS  DRIZZLE   56  55  96 N18       29.88R
*PORT LAVACA   CLOUDY    54  54 100 N14G26    29.89F
*INGLESIDE     DRIZZLE   57  55  93 NE17G25   29.88R
CORPUS CHRISTI LGT RAIN  55  54  96 NE16G24   29.88R
CORPUS NAS     CLOUDY    55  55 100 NE22      29.86F
*ROBSTOWN      CLOUDY    55  55 100 NE10G18   29.89R
ALICE          LGT RAIN  54  52  93 MISG      29.88S
KINGSVILLE NAS LGT RAIN  55  55 100 N10       29.88F
COTULLA        HVY RAIN  55  51  86 N9        29.93R FOG
*FAITH RANCH   CLOUDY    54  54 100 N7        29.95R FOG
LAREDO         LGT RAIN  54  53  97 N13       29.91F FOG
$$

TXZ248>255-042200-
DEEP SOUTH TEXAS

CITY           SKY/WX    TMP DP  RH WIND       PRES   REMARKS
BROWNSVILLE    LGT RAIN  59  58  96 NW12      29.84R FOG
PORT ISABEL    CLOUDY    60  60 100 NW14      29.83S
*SOUTH PADRE     N/A     66  64  94 NW16      29.83R VSB 1/2
HARLINGEN      LGT RAIN  57  57 100 N17       29.84S FOG
*HEBBRONVILLE  LGT RAIN  51  51  97 N7        29.90R
MCALLEN        LGT RAIN  59  56  89 N10       29.88S FOG
*WESLACO       LGT RAIN  56  55  96 N13       29.86S
FALFURRIAS     CLOUDY    55  54  94 N9G16     29.88S
EDINBURG       DRIZZLE   57  55  91 N10       29.88R
*ZAPATA        DRIZZLE   54  54 100 N7        29.90S
$$

TXZ213>215-236>238-242>244-246-247-251-254-255-042200-
CMAN STATIONS

STATION/POSITION TIME  TEMP    WIND        PRES    WAVE
                       AIR SEA DIR/SP/G            HT/PER
                 (UTC) (F)     (DEG/KT/KT) (MB)    (FT/S)
SABINE PASS      2030   54 62   10/ 15/ 19 1013.4
SEA RIM ST PARK  2000   53      20/ 12/ 18 1013.0
NORTH JETTY/GLS  2030   54 61  360/ 17/ 22   N/A
EAGLE POINT      2030   54 60   20/ 14/ 17 1012.5
MORGANS POINT    2030   54 63   20/ 16/ 21 1012.4
PORT O`CONNOR    2030   56     360/ 23/ 26 1011.5
PORT ARANSAS     2000   56 65  360/ 19/ 23 1011.2
MALAQUITE BEACH  2030   57 66  360/ 18/ 22 1011.8
BAFFIN BAY       2030   57 66  350/ 14/ 18 1011.5
PORT ISABEL      2030   63 76  340/  9/ 13 1009.8
$$

GMZ080-GMZ150>470-042200-
OFFSHORE BUOY REPORTS

STATION/POSITION TIME  TEMP    WIND        PRES    WAVE
                       AIR SEA DIR/SP/G            HT/PER
                 (UTC) (F)     (DEG/KT/KT) (MB)    (FT/S)
20 E GALVESTON   1950   57 68  350/ 19/ 23 1012.0    3/ 3
90 E PT ARANSAS  1950   69 77   40/ 21/ 25 1009.9    7/ 8
35 NE PT MANSFLD 2050   70 76   30/ 23/ 27 1008.9    9/ 7
200 E PT ISABEL  2050   80 79  160/  8/ 10 1009.2    5/ 6
$$



USA.gov is the U.S. government's official web portal to all federal, state and local government web resources and services.